Location: Carrières
(48.9495°N, 2.0407°E)
Time: 20:19:05
(UTC+00:00)

Vanguard 2 Rocket - Pass Details

Date: 16 April 2024
Orbit: 556 x 3304 km, 32.9° (Epoch: 20 May)

Event Time Altitude Azimuth Distance (km) Brightness Sun altitude
Rises 05:16:57 0° 273° (W) 6,819 10.7 2.2°
Reaches altitude 10° 05:25:23 10° 253° (WSW) 5,214 10.1 3.5°
Maximum altitude 05:30:55 13° 230° (SW) 4,461 9.9 4.4°
Drops below altitude 10° 05:35:36 10° 206° (SSW) 4,242 10.0 5.2°
Sets 05:40:56 0° 181° (S) 4,627 10.4 6.0°
